Flag for U.S.A. Weather past 2 weeks in Buffalo, New York, U.S.A.

Now
50 °F

Passing clouds.


Feels Like: 46 °F
Forecast: 40 / 53 °F
Wind: 10 mph from Southwest

Location: Greater Buffalo International Airport

Current Time: May 22, 2015 at 4:52:20 AM

Latest Report: May 22, 2015 at 3:54 AM


Visibility: 10 mi

Pressure: 29.91 "Hg

Humidity: 71%

Dew point: 41 °F

Location of BuffaloLocation

Historic Weather in Buffalo — Graph

°F

Buffalo temperature yesterday

Maximum temperature yesterday: 60 °F (at 2:54 PM)
Minimum temperature yesterday: 47 °F (at 3:54 AM)
Average temperature yesterday: 53 °F

Past Weeks' High & Low Weather Summary

 TemperatureHumidityPressure
High89 °F (May 9, 3:54 PM)96% (May 19, 5:54 AM)30.49 "Hg (May 19, 5:54 AM)
Low40 °F (May 14, 4:54 AM)24% (May 14, 4:54 PM)29.79 "Hg (May 12, 1:54 AM)
Average63 °F65%30.07 "Hg
* Reported May 7 2:54 AM — May 22 2:54 AM, Buffalo, Weather by CustomWeather, © 2015

Note: Actual official high and low records may vary slightly from our data, if they occured in-between our weather recording intervals... More about our weather records

Advertising

Buffalo weather history for previous 24 hours

 ConditionsComfort  
Time TempWeatherWind HumidityBarometerVisibility
2:54 AM
Fri, May 22
51 °FPartly cloudy.13 mph71%29.90 "Hg10 mi
1:54 AM53 °FPassing clouds.20 mph61%29.89 "Hg10 mi
12:54 AM52 °FPassing clouds.17 mph61%29.90 "Hg10 mi
11:54 PM
Thu, May 21
50 °FPassing clouds.16 mph66%29.91 "Hg10 mi
10:54 PM50 °FPassing clouds.15 mph63%29.92 "Hg10 mi
9:54 PM51 °FPassing clouds.15 mph59%29.91 "Hg10 mi
8:54 PM52 °FPartly sunny.18 mph55%29.91 "Hg10 mi
7:54 PM54 °FPartly sunny.18 mph49%29.91 "Hg10 mi
6:54 PM54 °FMostly cloudy.15 mph45%29.91 "Hg10 mi
5:54 PM56 °FPartly sunny.17 mph40%29.90 "Hg10 mi
4:54 PM57 °FPartly sunny.17 mph39%29.90 "Hg10 mi
3:54 PM59 °FPartly sunny.15 mph35%29.90 "Hg10 mi
2:54 PM60 °FScattered clouds.15 mph32%29.92 "Hg10 mi
1:54 PM59 °FScattered clouds.14 mph32%29.93 "Hg10 mi
12:54 PM59 °FScattered clouds.14 mph31%29.95 "Hg10 mi
11:54 AM57 °FScattered clouds.14 mph32%29.96 "Hg10 mi
10:54 AM57 °FScattered clouds.10 mph34%29.97 "Hg10 mi
9:54 AM54 °FScattered clouds.9 mph35%29.98 "Hg10 mi
8:54 AM51 °FPartly sunny.8 mph44%29.99 "Hg10 mi
7:54 AM49 °FPartly sunny.5 mph57%30.00 "Hg10 mi
6:54 AM47 °FPartly sunny.9 mph71%30.00 "Hg10 mi
5:54 AM47 °FOvercast.6 mph61%30.01 "Hg10 mi
4:54 AM47 °FMostly cloudy.5 mph66%30.02 "Hg10 mi
Weather by CustomWeather, © 2015

See weather overviewHow to use our weather pages